Simultaneous Nadir Overpasses (SNOs) Predictions

Prediction of SNOs between AQUA and LANDSAT-8 Satellite Orbit:

Table of predicted SNOs for the next 14.0 days since TLE Epoch: 10/19/2024
Index Date (AQUA) Time (AQUA) Lat,Lon (AQUA) SZA (AQUA ) Date (LANDSAT-8) Time (LANDSAT-8) Lat,Lon (LANDSAT-8) SZA (LANDSAT-8 ) Distance(km) Time Diff (sec)
1 10/19/2024 05:49:32 74.29, 96.39 84.50 10/19/2024 05:49:11 74.27, 96.45 84.48 2.30 21
2 10/19/2024 06:38:51 -74.26, -95.88 95.52 10/19/2024 06:38:39 -74.25, -95.96 95.53 2.69 12
3 10/19/2024 07:28:13 74.29, 71.71 84.53 10/19/2024 07:28:04 74.28, 71.73 84.51 1.88 9
4 10/19/2024 08:17:32 -74.26,-120.56 95.49 10/19/2024 08:17:32 -74.26,-120.68 95.50 3.67 0
5 10/19/2024 09:06:54 74.30, 47.03 84.56 10/19/2024 09:06:57 74.28, 47.02 84.54 1.95 3
6 10/19/2024 09:56:14 -74.32,-145.36 95.41 10/19/2024 09:56:24 -74.31,-145.27 95.42 2.99 10
7 10/19/2024 10:45:35 74.30, 22.35 84.59 10/19/2024 10:45:50 74.28, 22.31 84.57 2.46 15
8 10/19/2024 11:34:55 -74.33,-170.04 95.38 10/19/2024 11:35:17 -74.32,-169.98 95.39 2.24 22
9 10/19/2024 12:24:16 74.31, -2.34 84.62 10/19/2024 12:24:43 74.29, -2.41 84.60 3.21 27
10 10/19/2024 13:13:36 -74.33, 165.27 95.35 10/19/2024 13:14:10 -74.32, 165.31 95.36 1.75 34
11 10/19/2024 14:02:57 74.31, -27.02 84.65 10/19/2024 14:03:35 74.34, -27.00 84.68 3.04 38
12 10/19/2024 14:52:17 -74.34, 140.59 95.32 10/19/2024 14:53:03 -74.32, 140.59 95.33 1.77 46
13 10/19/2024 15:41:37 74.32, -51.70 84.68 10/19/2024 15:42:27 74.34, -51.71 84.71 2.65 50
14 10/19/2024 16:30:57 -74.34, 115.91 95.29 10/19/2024 16:31:55 -74.32, 115.88 95.30 2.26 58
15 10/19/2024 17:20:18 74.33, -76.39 84.71 10/19/2024 17:21:20 74.35, -76.42 84.74 2.56 62
16 10/19/2024 18:09:38 -74.35, 91.23 95.26 10/19/2024 18:10:48 -74.33, 91.17 95.28 3.01 70
17 10/19/2024 18:59:01 74.43,-101.32 84.83 10/19/2024 19:00:12 74.40,-101.02 84.82 9.85 71
18 10/19/2024 19:48:26 -74.71, 65.66 94.91 10/19/2024 19:49:34 -74.69, 67.32 94.86 48.95 68
19 10/19/2024 20:37:51 74.90,-127.17 85.29 10/19/2024 20:38:57 74.81,-124.72 85.29 71.83 66



Historial Predications of SNOs between AQUA and LANDSAT-8
